Temperature
21 19 18 19 19 20 19 19 18 19 19 19 18 18 18 18 18 18 18 18 19 19 19 19 19 18 18 18 18 17 17 17 16 16 16 16 15 15 15 15 15 15 15 15
18 19 19 20 19 19 19 19 18 19 20 19 18 18 18 17 17 18 18 18 19 19 19 19 19 18 18 18 18 17 17 17 16 16 16 16 15 15 15 15 15 15 15 15
19 19 20 20 20 19 19 18 19 19 19 19 18 18 18 17 18 18 18 18 19 19 19 19 19 18 18 18 18 17 17 17 16 16 16 15 15 15 15 15 15 15 15 15
19 20 20 20 20 20 19 20 19 19 18 17 18 17 17 16 16 17 17 18 18 19 19 19 19 18 18 18 18 17 17 17 16 16 16 16 15 15 15 15 15 15 15 15
19 20 20 20 20 20 20 20 19 19 18 17 17 17 16 16 17 17 17 17 18 19 19 19 19 19 18 18 18 17 17 16 16 16 16 15 15 15 15 15 15 15 15 15
19 20 20 20 20 20 20 19 18 16 16 17 17 17 16 15 16 17 17 18 18 19 19 19 19 18 18 18 18 17 17 16 16 16 16 15 15 15 15 15 15 15 15 15
19 20 20 20 20 20 19 17 16 17 16 16 17 16 16 17 17 17 17 18 18 19 19 19 19 18 18 18 18 17 17 17 16 16 16 15 15 15 15 15 15 15 15 15
18 18 19 20 20 19 18 17 17 17 16 16 16 16 17 17 18 18 18 18 18 19 19 19 19 18 18 18 18 17 17 17 16 16 16 16 15 15 15 15 15 15 15 15
17 18 19 20 19 19 18 17 17 16 16 16 16 16 17 18 17 17 17 18 18 18 19 19 19 18 18 18 18 17 17 17 16 16 16 16 15 15 15 15 15 15 15 15
17 18 18 19 19 18 18 16 15 16 16 16 16 16 16 17 17 16 16 17 18 18 18 19 18 18 18 18 18 17 17 17 17 16 16 16 15 15 15 15 15 15 15 15
17 17 17 18 18 18 17 17 15 14 15 15 16 16 17 17 16 16 16 17 18 18 18 18 18 18 18 18 17 17 17 17 16 16 16 16 15 15 15 15 15 15 15 15
15 14 15 17 18 18 18 17 15 16 15 14 15 16 18 16 16 17 17 17 18 18 18 18 18 18 18 17 17 17 17 16 16 16 16 16 15 15 15 15 15 15 15 15
15 14 15 16 16 17 17 17 16 14 13 13 14 16 17 16 16 17 17 17 18 18 18 18 18 18 17 17 17 17 16 16 16 16 16 16 15 15 15 15 15 15 14 14
15 14 15 16 16 16 17 17 15 15 14 14 14 16 16 16 16 16 17 17 18 18 18 18 18 17 17 17 17 17 16 16 16 16 16 15 15 15 15 15 15 14 14 14
14 14 15 15 16 16 16 16 16 16 15 15 15 15 16 16 15 16 17 17 17 17 17 17 17 17 17 17 17 16 16 16 16 16 15 15 15 15 15 15 14 14 14 14
13 14 15 15 15 15 16 16 16 16 15 15 15 15 15 16 16 16 16 17 17 17 17 17 17 17 17 17 16 16 16 16 15 15 15 15 15 15 15 14 14 14 14 14
12 13 13 13 14 15 15 16 16 16 15 15 15 16 15 15 15 16 16 17 17 18 17 17 17 17 17 17 16 16 16 15 15 15 15 15 15 15 14 14 14 14 14 14
11 12 11 12 14 15 15 16 16 16 16 15 15 15 15 15 16 17 17 17 17 17 17 17 17 17 17 16 16 16 16 15 15 15 15 15 14 14 14 14 14 14 14 13
11 11 11 11 13 13 15 15 15 15 15 15 15 15 15 15 15 16 17 17 17 17 17 17 17 17 16 16 16 16 15 15 15 15 14 14 14 14 14 14 14 13 13 13
10 10 11 10 13 13 15 16 16 16 15 15 15 14 14 15 13 14 17 17 17 17 17 17 17 16 16 16 16 15 15 15 15 14 14 14 14 14 14 13 13 13 13 13
11 10 10 10 12 12 14 15 16 15 15 16 16 15 15 15 15 17 17 17 17 17 16 16 16 16 16 15 15 15 15 14 14 14 14 14 13 13 13 13 13 13 13 13
11 10 10 10 11 13 14 14 14 14 16 16 16 16 15 16 16 16 16 16 16 16 16 16 16 15 15 15 15 14 14 14 14 14 13 13 13 13 13 13 13 12 12 12
10 11 10 11 12 13 14 15 16 16 16 16 16 15 15 15 16 16 16 16 16 16 15 15 15 15 15 14 14 14 14 14 14 13 13 13 13 13 13 12 12 12 12 12
10 10 9 10 11 13 14 15 15 15 16 16 15 15 15 15 15 15 15 15 15 15 15 15 15 14 14 14 14 14 14 13 13 13 13 13 13 13 12 12 12 12 12 12
10 9 9 10 11 12 14 15 15 15 15 15 15 15 15 15 14 15 15 14 14 14 14 14 14 14 14 14 14 14 13 13 13 13 13 13 12 12 12 12 12 12 12 12
9 9 10 11 12 12 14 15 15 15 15 15 15 14 14 14 14 14 14 14 14 14 14 14 14 13 13 13 13 13 13 13 13 12 12 12 12 12 12 12 12 11 11 11
Wind_Speed
4 5 3 6 6 5 5 4 2 3 2 1 1 4 4 2 2 3 4 4 4 6 4 2 3 3 4 4 4 4 4 3 3 2 2 2 2 2 2 3 4 4 4 4
5 1 5 4 5 5 5 3 2 2 1 2 1 4 4 2 3 4 6 6 6 4 2 3 3 4 4 4 4 3 3 3 3 2 2 1 2 1 1 2 3 3 3 3
4 3 2 5 5 5 3 5 5 3 1 2 2 5 4 3 2 1 2 4 4 5 6 5 5 4 4 4 4 4 3 3 3 3 3 3 3 3 2 2 2 2 2 2
2 2 2 4 3 5 3 5 5 3 2 2 1 3 6 4 3 2 2 3 4 4 5 5 6 6 6 5 4 4 4 3 3 3 3 3 2 1 1 0 0 1 2 2
2 1 2 3 4 5 5 2 3 2 3 1 1 1 7 3 3 5 5 4 4 4 6 7 7 7 6 5 5 4 4 3 2 3 3 3 2 1 0 1 1 2 2 2
2 2 2 3 1 3 5 6 6 5 4 2 3 3 6 3 5 5 4 4 4 4 5 5 5 5 4 4 4 4 3 2 2 2 3 3 3 2 1 1 0 1 1 1
3 3 2 1 2 3 5 6 3 4 3 5 3 3 7 6 5 5 5 5 4 3 4 5 6 6 6 6 5 4 4 3 2 2 2 3 3 3 3 2 2 1 0 1
1 4 3 1 4 5 4 8 7 4 4 4 2 4 6 4 3 3 2 3 3 3 4 5 7 7 7 6 6 5 5 3 3 3 2 2 2 2 2 2 2 2 2 2
4 4 3 1 2 7 5 4 6 6 2 2 5 6 6 2 2 1 1 2 2 3 3 5 6 6 6 7 6 6 5 4 3 3 3 2 2 2 2 1 1 1 1 1
5 3 3 2 4 3 4 7 5 5 4 3 5 4 4 4 3 1 1 2 2 2 2 4 5 5 5 6 5 5 5 4 3 3 3 2 2 2 2 1 1 1 1 1
3 3 3 2 2 3 3 4 4 4 5 5 3 6 5 6 5 5 4 4 4 3 3 4 3 3 4 4 4 4 4 3 3 3 2 2 1 1 1 1 2 2 1 1
3 4 2 4 3 2 4 5 6 5 4 4 4 7 5 4 4 4 4 3 2 3 3 4 4 4 4 4 4 4 4 4 3 3 3 3 2 1 1 1 2 1 1 1
4 5 2 5 4 2 1 3 4 4 4 5 5 7 3 2 1 2 3 2 2 2 2 3 4 4 4 4 4 3 3 3 3 3 3 3 2 2 2 2 2 2 2 1
4 4 5 7 5 2 2 2 4 5 4 5 7 8 6 2 2 2 2 2 2 3 3 3 3 3 4 4 3 3 3 3 3 3 3 3 3 3 3 2 2 2 2 2
4 3 3 5 4 3 5 6 6 7 8 8 8 8 9 6 6 5 3 3 3 3 3 3 3 3 3 3 3 2 2 2 2 3 3 4 3 3 2 2 2 2 2 2
3 3 2 3 3 4 6 8 8 7 6 7 6 8 6 3 2 3 3 4 3 3 3 3 3 4 4 4 4 3 3 3 3 3 3 3 3 3 3 2 2 3 2 2
2 4 3 3 4 3 7 8 8 6 6 7 8 8 3 3 5 6 6 6 5 5 4 4 4 4 5 5 5 5 5 3 3 3 3 3 3 3 3 3 2 3 3 3
5 4 3 2 0 6 8 4 6 6 6 6 5 5 6 6 5 4 5 6 5 4 4 3 3 3 4 4 4 4 3 3 3 3 3 3 3 3 3 3 3 3 2 3
5 6 4 3 3 7 7 4 5 5 5 5 5 4 3 2 2 2 3 4 4 4 4 3 3 3 3 4 4 3 3 3 3 4 4 4 4 4 3 4 4 3 3 3
3 4 4 4 4 6 7 4 2 3 4 4 5 6 4 5 2 5 4 2 2 2 2 2 2 2 3 3 3 4 4 4 5 5 5 4 4 4 5 5 4 3 3 3
3 2 4 5 6 8 7 4 3 4 6 3 5 5 6 6 7 5 3 3 3 3 2 2 2 2 3 3 3 4 4 6 6 5 4 4 4 5 5 4 3 3 3 2
6 5 5 5 5 8 4 3 5 6 2 1 2 3 5 4 3 3 3 3 3 3 2 2 2 2 2 3 4 4 5 6 4 4 4 4 4 4 3 3 3 3 3 3
6 7 6 7 7 5 3 4 4 2 2 2 2 2 3 3 3 3 3 3 3 4 4 3 2 2 2 3 4 5 6 4 3 3 4 4 3 3 3 4 4 3 3 3
4 3 3 4 7 6 6 4 3 2 2 2 2 2 2 3 3 3 3 3 3 4 4 3 3 3 3 4 4 5 4 4 4 4 4 3 3 3 3 3 4 4 4 4
6 4 3 6 7 6 5 5 5 4 2 1 1 1 2 3 3 4 3 4 4 4 3 3 4 4 5 4 4 4 3 4 4 4 4 3 4 4 4 4 4 5 5 6
6 7 7 8 8 6 7 5 4 3 4 3 2 3 3 3 4 4 4 4 4 4 3 3 4 4 4 4 4 4 3 4 4 3 4 3 4 3 3 3 2 3 4 6
Wind_Direction
46 81 168 202 189 172 151 151 199 258 257 124 222 274 287 265 180 197 201 209 219 228 236 176 165 141 126 122 122 128 126 125 110 92 92 81 56 28 26 36 56 71 86 99
46 288 227 179 152 138 143 150 219 288 354 140 270 292 287 250 227 217 204 207 216 218 199 181 165 154 153 150 146 143 145 146 144 128 120 122 114 75 36 23 51 63 83 99
168 239 164 137 143 147 181 185 199 210 3 35 14 327 310 289 281 245 209 208 210 204 195 190 181 177 164 163 168 167 162 155 145 122 100 81 64 45 29 22 25 25 59 89
219 250 139 141 181 162 220 215 183 169 113 296 61 300 294 286 309 286 254 226 219 214 196 190 187 183 183 183 173 160 157 150 143 132 127 123 120 132 230 256 353 16 46 76
243 206 156 194 215 174 198 131 120 121 132 360 353 209 291 322 287 270 251 231 226 211 197 194 193 189 182 170 165 162 150 142 138 141 143 129 120 150 109 64 52 36 29 40
245 251 198 212 199 145 126 79 60 52 71 309 252 186 284 257 241 260 245 230 222 209 196 192 184 169 161 153 153 153 149 156 159 150 145 151 154 151 125 95 80 18 12 9
343 324 307 140 87 45 95 95 37 357 1 260 266 199 253 261 247 234 231 224 211 189 183 175 167 167 166 163 164 163 161 172 176 161 165 173 171 169 177 187 188 193 233 262
167 287 277 198 174 176 166 144 161 200 227 276 305 236 257 276 282 260 219 186 168 173 183 181 179 175 174 171 168 167 171 178 175 174 190 182 170 173 195 200 194 200 215 233
178 247 295 261 181 143 143 171 164 137 162 261 283 289 303 320 359 18 84 119 161 181 182 182 176 174 173 171 175 175 175 178 181 185 180 180 177 181 196 208 197 209 226 227
160 223 293 309 70 41 143 145 110 128 162 250 291 279 260 272 270 275 215 202 212 188 176 177 177 177 178 174 172 164 167 179 184 182 187 189 197 198 190 170 196 212 221 206
134 164 309 15 155 185 98 106 115 128 154 165 250 270 231 227 228 219 224 221 205 190 183 182 177 168 160 153 158 161 166 166 169 177 183 184 198 182 167 184 218 208 191 176
119 125 246 269 267 222 166 165 147 158 209 182 191 263 279 242 226 209 214 218 206 183 173 169 157 149 149 156 165 172 176 178 187 179 171 183 180 160 172 210 227 187 174 179
134 118 73 342 340 359 132 151 147 134 131 164 185 260 307 27 125 205 199 199 185 158 143 141 142 151 162 167 172 177 182 194 190 170 172 179 182 186 205 217 211 175 160 147
119 122 172 203 224 225 240 202 161 141 166 204 221 248 285 291 250 241 214 192 164 148 148 155 161 168 170 169 173 182 192 193 181 174 178 192 204 202 207 207 191 180 166 155
110 155 208 236 248 232 242 237 208 202 197 201 230 233 248 238 223 222 206 175 150 152 162 174 179 180 175 171 173 179 187 184 174 172 190 210 211 197 189 187 184 175 166 173
86 152 171 268 270 259 263 251 229 222 210 216 234 251 250 234 183 187 195 181 183 197 200 199 194 183 185 189 192 189 195 196 173 178 205 210 192 186 183 192 182 169 168 165
126 137 144 253 292 319 266 236 214 214 207 191 214 234 218 201 204 203 200 195 198 205 203 207 214 205 201 201 197 198 199 189 179 190 209 206 194 189 193 191 175 185 186 168
150 135 148 201 49 235 242 240 209 211 230 209 217 224 207 209 211 212 197 190 201 209 202 209 217 221 210 194 198 196 178 177 183 195 210 215 202 198 193 180 191 202 191 186
167 150 147 156 216 271 286 250 186 189 247 217 208 214 203 140 65 315 237 200 202 207 208 210 216 220 208 200 194 174 179 186 193 211 217 216 206 201 195 200 210 208 195 207
108 133 143 156 193 236 250 259 212 141 263 240 195 191 177 131 162 249 236 208 214 216 196 192 201 195 199 207 174 164 189 200 218 224 222 214 205 202 207 211 214 209 196 205
119 128 171 187 221 256 257 263 138 169 244 242 190 188 182 191 210 221 204 208 210 208 201 190 186 197 215 197 168 182 200 220 230 224 216 210 207 210 211 206 202 194 191 191
181 179 191 174 207 252 270 142 181 224 263 208 200 204 206 223 229 214 203 205 206 206 206 196 191 239 240 195 180 200 224 234 226 209 209 216 214 213 205 189 198 192 185 191
201 194 193 198 218 250 251 226 254 214 203 215 204 233 209 228 241 232 225 217 221 214 209 199 193 229 255 223 201 213 234 229 211 204 215 221 220 218 202 194 196 193 191 197
252 188 182 247 265 269 276 285 295 255 235 233 213 205 196 239 244 246 238 234 228 227 218 201 190 215 246 241 228 225 228 206 197 208 216 212 208 216 210 202 196 195 199 206
223 184 199 254 274 291 280 262 264 277 282 288 300 246 222 233 250 242 238 242 234 234 223 201 208 222 237 240 242 239 220 198 199 208 213 213 209 203 207 213 212 209 214 209
209 199 203 238 241 230 258 265 254 259 265 258 264 288 277 236 240 249 246 245 237 232 224 219 229 231 240 242 243 242 224 203 200 214 217 212 208 205 205 210 242 248 233 232
Height
1519 1525 1531 1529 1529 1530 1534 1539 1543 1539 1533 1535 1536 1536 1532 1530 1531 1531 1531 1532 1533 1534 1535 1537 1538 1539 1541 1541 1542 1543 1544 1544 1544 1545 1545 1545 1545 1545 1546 1546 1546 1546 1546 1546
1525 1529 1524 1524 1526 1529 1534 1540 1541 1537 1532 1535 1537 1536 1531 1530 1529 1529 1530 1531 1531 1532 1534 1535 1537 1539 1540 1541 1542 1543 1544 1544 1545 1545 1546 1546 1546 1546 1547 1547 1547 1547 1547 1547
1527 1526 1522 1524 1528 1532 1534 1538 1539 1539 1535 1535 1538 1539 1534 1529 1528 1528 1528 1529 1530 1531 1532 1534 1536 1537 1539 1541 1542 1543 1544 1545 1545 1546 1546 1546 1547 1547 1547 1547 1548 1548 1548 1548
1525 1523 1523 1525 1528 1530 1537 1530 1532 1535 1542 1548 1543 1554 1538 1532 1529 1527 1527 1527 1528 1529 1531 1532 1534 1536 1538 1540 1542 1543 1544 1545 1546 1546 1547 1547 1547 1547 1548 1548 1548 1548 1548 1548
1526 1522 1524 1526 1525 1526 1530 1527 1531 1536 1542 1548 1546 1552 1544 1534 1532 1527 1525 1525 1526 1527 1529 1530 1533 1535 1537 1540 1542 1543 1544 1545 1546 1546 1547 1547 1547 1548 1548 1548 1549 1549 1549 1549
1523 1521 1521 1522 1521 1523 1525 1531 1537 1543 1548 1558 1548 1553 1548 1537 1530 1525 1523 1523 1523 1525 1526 1529 1531 1534 1536 1539 1541 1542 1544 1545 1546 1546 1547 1547 1548 1548 1548 1548 1549 1549 1549 1549
1527 1523 1520 1520 1524 1526 1528 1542 1558 1560 1565 1561 1547 1549 1544 1528 1524 1522 1521 1521 1522 1523 1524 1527 1529 1532 1535 1537 1539 1541 1543 1544 1545 1546 1547 1547 1547 1548 1548 1548 1548 1549 1549 1549
1535 1536 1523 1520 1523 1528 1531 1538 1557 1564 1566 1560 1548 1550 1536 1523 1521 1520 1519 1520 1521 1522 1523 1525 1528 1530 1533 1536 1538 1540 1542 1543 1545 1545 1546 1547 1547 1547 1548 1548 1548 1548 1548 1548
1535 1535 1521 1519 1519 1523 1532 1537 1537 1551 1555 1560 1554 1543 1530 1521 1520 1519 1519 1519 1520 1521 1523 1524 1527 1529 1532 1534 1537 1539 1541 1542 1544 1545 1546 1546 1547 1547 1547 1548 1548 1548 1548 1548
1527 1533 1524 1521 1520 1522 1525 1532 1543 1551 1561 1564 1554 1547 1541 1526 1523 1521 1520 1519 1520 1521 1522 1524 1526 1528 1531 1533 1536 1538 1540 1541 1543 1544 1545 1545 1546 1547 1547 1547 1547 1547 1547 1547
1524 1532 1530 1525 1526 1528 1530 1534 1539 1548 1551 1561 1561 1550 1525 1522 1520 1520 1519 1519 1520 1521 1522 1524 1526 1528 1530 1532 1535 1537 1538 1540 1541 1542 1543 1544 1545 1546 1546 1546 1546 1546 1546 1546
1525 1533 1537 1530 1523 1522 1524 1529 1537 1546 1550 1553 1556 1547 1518 1517 1517 1517 1518 1519 1519 1520 1522 1523 1525 1527 1529 1531 1533 1535 1537 1538 1539 1541 1542 1543 1543 1544 1544 1545 1545 1545 1545 1545
1524 1533 1542 1538 1534 1527 1526 1527 1530 1537 1546 1554 1555 1541 1518 1516 1516 1517 1517 1518 1519 1520 1521 1522 1524 1526 1528 1530 1532 1533 1535 1536 1538 1539 1540 1541 1541 1542 1542 1543 1543 1543 1543 1543
1521 1531 1537 1540 1535 1530 1528 1527 1529 1534 1544 1548 1543 1533 1521 1518 1517 1517 1517 1518 1518 1519 1521 1522 1523 1525 1526 1529 1530 1532 1533 1534 1535 1536 1537 1538 1539 1539 1540 1541 1541 1541 1542 1542
1521 1529 1529 1528 1525 1526 1526 1525 1526 1529 1531 1536 1531 1527 1519 1516 1515 1515 1516 1517 1518 1519 1520 1521 1522 1523 1525 1527 1528 1530 1531 1532 1533 1534 1535 1535 1536 1537 1537 1538 1538 1539 1539 1539
1522 1527 1528 1528 1524 1525 1525 1522 1522 1522 1523 1525 1524 1522 1513 1512 1513 1514 1515 1515 1516 1517 1518 1519 1521 1522 1523 1525 1526 1527 1529 1530 1531 1531 1532 1533 1533 1534 1534 1535 1535 1536 1536 1537
1525 1527 1532 1534 1528 1525 1527 1517 1517 1517 1515 1517 1520 1515 1511 1512 1511 1511 1512 1513 1514 1516 1517 1518 1519 1520 1521 1522 1524 1525 1526 1527 1528 1529 1529 1530 1530 1531 1531 1532 1532 1533 1533 1534
1525 1529 1534 1536 1532 1535 1518 1508 1508 1510 1509 1509 1508 1507 1507 1507 1508 1509 1510 1511 1512 1513 1514 1515 1516 1517 1518 1520 1521 1522 1523 1524 1525 1526 1526 1527 1527 1527 1528 1529 1529 1529 1530 1530
1519 1526 1534 1537 1535 1527 1514 1506 1506 1508 1508 1504 1505 1505 1505 1506 1508 1508 1509 1510 1510 1511 1512 1513 1514 1515 1516 1517 1518 1519 1520 1520 1521 1522 1523 1523 1524 1524 1524 1525 1525 1526 1526 1526
1519 1522 1530 1535 1532 1530 1513 1502 1501 1504 1508 1501 1501 1502 1503 1505 1511 1508 1507 1508 1508 1510 1511 1512 1512 1513 1514 1514 1515 1515 1516 1517 1517 1518 1519 1520 1520 1520 1521 1521 1522 1522 1522 1523
1523 1526 1529 1532 1530 1519 1505 1500 1501 1512 1508 1498 1498 1499 1500 1502 1503 1503 1504 1505 1506 1507 1508 1509 1510 1510 1510 1511 1511 1512 1512 1513 1514 1515 1515 1516 1516 1517 1517 1517 1518 1518 1518 1519
1519 1524 1527 1529 1528 1520 1500 1500 1503 1502 1497 1496 1496 1497 1498 1499 1499 1500 1501 1502 1503 1504 1505 1506 1506 1506 1507 1507 1508 1508 1508 1509 1510 1510 1511 1511 1512 1513 1513 1513 1513 1514 1514 1514
1514 1513 1514 1514 1511 1502 1499 1498 1497 1496 1496 1495 1495 1496 1497 1497 1497 1498 1498 1499 1500 1501 1501 1502 1502 1503 1503 1504 1504 1504 1504 1505 1505 1506 1506 1507 1507 1508 1508 1509 1509 1509 1510 1510
1508 1506 1508 1508 1501 1498 1497 1496 1495 1495 1495 1494 1494 1495 1495 1495 1495 1495 1495 1496 1496 1497 1497 1498 1498 1498 1499 1499 1500 1500 1500 1500 1501 1501 1501 1502 1503 1503 1504 1504 1505 1505 1505 1505
1503 1504 1504 1503 1498 1496 1493 1493 1493 1492 1492 1492 1492 1493 1493 1493 1492 1492 1492 1492 1492 1493 1493 1494 1494 1494 1494 1494 1495 1495 1496 1496 1496 1496 1496 1497 1498 1499 1499 1500 1500 1500 1501 1501
1497 1499 1500 1497 1493 1493 1491 1490 1490 1490 1489 1489 1489 1489 1489 1490 1489 1488 1488 1488 1488 1488 1489 1490 1490 1490 1490 1490 1490 1490 1491 1491 1491 1491 1492 1492 1493 1494 1495 1495 1495 1496 1497 1497